"Pseudo-MPEC" for orA4980

Created 2026 Aug 22 4:35:16 UT using Find_Orb

Click here for an explanation of pseudo-MPECs

 
 Astrometry: 
     orA4980*KB2026 08 20.16578701 28 15.914+12 02 25.73   ~8K6K       ZNEOCPJ43
     orA4980 KB2026 08 20.17662001 28 14.621+12 02 35.99   ~8K6K 21.2 gZNEOCPJ43

Station data:
(J43) Oukaïmeden Observatory, Marrakech  (N31.206437 W7.866460)  Morocco.
   Observer C. Rinner. Measurers C. Rinner, M. Ory. 0.5-m f/3 reflector + CCD.

Orbital elements:  orA4980
   Perihelion 2026 Apr 2.601723 +/- 128 TT = 14:26:28.8 (JD 2461133.101723)
Epoch 2026 Aug 20.0 TT = JDT 2461272.5   Earth MOID: 0.3136   Ma: 0.0830
M 114.021809509 +/- 110             (J2000 ecliptic)             AutoNEOCP
n   0.817957091 +/- 0.637           Peri.  207.317377 +/- 70
a   1.132354389 +/- 0.588           Node   349.773583 +/- 46
e   0.54214002 +/- 0.228            Incl.   33.026255 +/- 52
P   1.205/440.113d         H 19.01  G  0.15   U 12.5  SR
q 0.518459754 +/- 0.708    Q 1.746249025 +/- 21.3
From 2 observations 2026 Aug. 20 (15.6 min); mean residual 0".00
Residuals in arcseconds: 
260820 J43  .00   .00     260820 J43  .00   .00     

Ephemerides (geocentric):
Date (UTC) HH   RA             Dec           delta  r     elong  mag " sig PA
---- --------  ------------   ------------  ------ ------ -----  --- --------
2026 08 22 05  01 24 10.218   +12 34 27.94  .77037 1.5814 124.6 20.8  25d  98
2026 08 22 06  01 24 04.989   +12 35 06.72  .77013 1.5816 124.6 20.8  25d  98
2026 08 22 07  01 23 59.751   +12 35 45.48  .76989 1.5817 124.7 20.8  25d  98
2026 08 22 08  01 23 54.505   +12 36 24.23  .76965 1.5819 124.7 20.8  25d  98
2026 08 22 09  01 23 49.250   +12 37 02.96  .76941 1.5821 124.8 20.8  25d  98
2026 08 22 10  01 23 43.986   +12 37 41.67  .76917 1.5823 124.8 20.8  25d  98
2026 08 22 11  01 23 38.713   +12 38 20.37  .76894 1.5824 124.9 20.8  25d  98
2026 08 22 12  01 23 33.432   +12 38 59.05  .76870 1.5826 125.0 20.8  25d  98
2026 08 22 13  01 23 28.142   +12 39 37.71  .76846 1.5828 125.0 20.8  25d  97
2026 08 22 14  01 23 22.843   +12 40 16.36  .76823 1.5830 125.1 20.8  27d  95
2026 08 22 15  01 23 17.535   +12 40 55.00  .76799 1.5832 125.1 20.8  28d  96
2026 08 22 16  01 23 12.219   +12 41 33.61  .76775 1.5833 125.2 20.8  29d  97
2026 08 22 17  01 23 06.894   +12 42 12.21  .76752 1.5835 125.2 20.8  29d  97
2026 08 22 18  01 23 01.560   +12 42 50.80  .76728 1.5837 125.3 20.8  30d  97
2026 08 22 19  01 22 56.217   +12 43 29.36  .76705 1.5839 125.3 20.8  30d  97
2026 08 22 20  01 22 50.866   +12 44 07.91  .76681 1.5840 125.4 20.8  30d  98
2026 08 22 21  01 22 45.505   +12 44 46.45  .76658 1.5842 125.5 20.8  30d  98
2026 08 22 22  01 22 40.136   +12 45 24.97  .76634 1.5844 125.5 20.8  30d  98
2026 08 22 23  01 22 34.759   +12 46 03.47  .76611 1.5846 125.6 20.8  30d  98
2026 08 23 00  01 22 29.372   +12 46 41.95  .76587 1.5847 125.6 20.8  30d  98
2026 08 23 01  01 22 23.977   +12 47 20.42  .76564 1.5849 125.7 20.8  30d  98
2026 08 23 02  01 22 18.573   +12 47 58.87  .76541 1.5851 125.7 20.8  30d  98
2026 08 23 03  01 22 13.160   +12 48 37.30  .76517 1.5853 125.8 20.8  30d  98
2026 08 23 04  01 22 07.739   +12 49 15.71  .76494 1.5855 125.8 20.8  30d  98
2026 08 23 05  01 22 02.308   +12 49 54.11  .76471 1.5856 125.9 20.8  30d  98
2026 08 23 06  01 21 56.869   +12 50 32.49  .76447 1.5858 126.0 20.8  30d  98
2026 08 23 07  01 21 51.421   +12 51 10.85  .76424 1.5860 126.0 20.8  30d  98
2026 08 23 08  01 21 45.965   +12 51 49.20  .76401 1.5862 126.1 20.8  30d  98
2026 08 23 09  01 21 40.499   +12 52 27.53  .76378 1.5863 126.1 20.8  30d  96
2026 08 23 10  01 21 35.025   +12 53 05.84  .76355 1.5865 126.2 20.8  33d  94
2026 08 23 11  01 21 29.542   +12 53 44.13  .76332 1.5867 126.2 20.8  34d  95
2026 08 23 12  01 21 24.050   +12 54 22.40  .76308 1.5869 126.3 20.8  34d  96
2026 08 23 13  01 21 18.550   +12 55 00.66  .76285 1.5870 126.3 20.8  34d  97
2026 08 23 14  01 21 13.040   +12 55 38.90  .76262 1.5872 126.4 20.8  34d  97
2026 08 23 15  01 21 07.522   +12 56 17.12  .76239 1.5874 126.5 20.7  34d  97
2026 08 23 16  01 21 01.995   +12 56 55.32  .76216 1.5876 126.5 20.7  34d  97
2026 08 23 17  01 20 56.459   +12 57 33.51  .76193 1.5877 126.6 20.7  34d  98
2026 08 23 18  01 20 50.915   +12 58 11.67  .76170 1.5879 126.6 20.7  34d  98
2026 08 23 19  01 20 45.361   +12 58 49.82  .76147 1.5881 126.7 20.7  34d  98
2026 08 23 20  01 20 39.799   +12 59 27.95  .76125 1.5883 126.7 20.7  34d  98
2026 08 23 21  01 20 34.228   +13 00 06.06  .76102 1.5884 126.8 20.7  34d  98
2026 08 23 22  01 20 28.649   +13 00 44.15  .76079 1.5886 126.8 20.7  34d  98
2026 08 23 23  01 20 23.060   +13 01 22.23  .76056 1.5888 126.9 20.7  34d  98
2026 08 24 00  01 20 17.463   +13 02 00.28  .76033 1.5890 127.0 20.7  34d  98
2026 08 24 01  01 20 11.857   +13 02 38.32  .76011 1.5891 127.0 20.7  34d  98
2026 08 24 02  01 20 06.242   +13 03 16.33  .75988 1.5893 127.1 20.7  34d  98
2026 08 24 03  01 20 00.618   +13 03 54.33  .75965 1.5895 127.1 20.7  34d  98
2026 08 24 04  01 19 54.986   +13 04 32.31  .75942 1.5896 127.2 20.7  34d  98